| time (UTC) | temp F | wind direction | speed knots | gust knots | rain 1hr in | rain 24hr in | rain mn in | humidity % | barometer mb |
| 20260507201024 | 51 | 97 | 0.9 | 3.5 | 0.00 | 0.00 | 0.00 | 82 | 1013.2 |
| 20260507200023 | 51 | 197 | 1.7 | 3.5 | 0.00 | 0.00 | 0.00 | 76 | 1013.3 |
| 20260507195022 | 52 | 312 | 2.6 | 4.3 | 0.00 | 0.00 | 0.00 | 78 | 1013.3 |
| 20260507194023 | 51 | 207 | 0.0 | 6.1 | 0.00 | 0.00 | 0.00 | 80 | 1013.5 |
| 20260507193024 | 53 | 288 | 1.7 | 4.3 | 0.00 | 0.00 | 0.00 | 78 | 1013.6 |
| 20260507192021 | 51 | 219 | 1.7 | 4.3 | 0.00 | 0.00 | 0.00 | 83 | 1013.7 |
| 20260507191021 | 51 | 283 | 1.7 | 6.1 | 0.00 | 0.00 | 0.00 | 72 | 1014.0 |
| 20260507190024 | 52 | 335 | 1.7 | 5.2 | 0.00 | 0.00 | 0.00 | 77 | 1013.8 |
| 20260507185022 | 52 | 8 | 0.9 | 6.1 | 0.00 | 0.00 | 0.00 | 83 | 1014.0 |
| 20260507184024 | 50 | 76 | 1.7 | 3.5 | 0.00 | 0.00 | 0.00 | 92 | 1013.9 |
| 20260507183022 | 49 | 91 | 2.6 | 5.2 | 0.00 | 0.00 | 0.00 | 93 | 1014.0 |
| 20260507182021 | 52 | 268 | 2.6 | 5.2 | 0.00 | 0.00 | 0.00 | 89 | 1014.0 |
| 20260507181022 | 52 | 256 | 2.6 | 3.5 | 0.00 | 0.00 | 0.00 | 89 | 1014.0 |
| 20260507180023 | 52 | 15 | 1.7 | 4.3 | 0.00 | 0.00 | 0.00 | 91 | 1014.2 |
| 20260507175022 | 53 | 328 | 0.9 | 4.3 | 0.00 | 0.00 | 0.00 | 93 | 1014.2 |
| 20260507174021 | 51 | 23 | 2.6 | 4.3 | 0.00 | 0.00 | 0.00 | 92 | 1014.5 |
| 20260507173022 | 51 | 80 | 1.7 | 2.6 | 0.00 | 0.00 | 0.00 | 96 | 1014.4 |
| 20260507172021 | 49 | 44 | 1.7 | 3.5 | 0.00 | 0.00 | 0.00 | 96 | 1014.5 |
| 20260507171022 | 46 | 339 | 0.9 | 3.5 | 0.00 | 0.00 | 0.00 | 97 | 1014.9 |
| 20260507170023 | 48 | 25 | 0.9 | 3.5 | 0.00 | 0.00 | 0.00 | 98 | 1014.8 |
| 20260507165023 | 47 | 73 | 0.9 | 3.5 | 0.00 | 0.00 | 0.00 | 99 | 1015.0 |
| 20260507164022 | 46 | 59 | 0.9 | 3.5 | 0.00 | 0.00 | 0.00 | 99 | 1015.0 |
| 20260507163021 | 45 | 67 | 0.9 | 3.5 | 0.00 | 0.00 | 0.00 | 99 | 1015.1 |
| 20260507162022 | 43 | 92 | 0.9 | 3.5 | 0.00 | 0.00 | 0.00 | 99 | 1015.2 |
| 20260507161021 | 42 | 204 | 0.9 | 3.5 | 0.00 | 0.00 | 0.00 | 99 | 1015.8 |
| 20260507160022 | 42 | 104 | 1.7 | 3.5 | 0.00 | 0.00 | 0.00 | 99 | 1015.5 |
| 20260507155022 | 42 | 34 | 1.7 | 3.5 | 0.00 | 0.00 | 0.00 | 99 | 1015.3 |
| 20260507154021 | 40 | 96 | 1.7 | 3.5 | 0.00 | 0.00 | 0.00 | 99 | 1015.5 |
| 20260507153022 | 41 | 39 | 2.6 | 5.2 | 0.00 | 0.00 | 0.00 | 99 | 1015.2 |
| 20260507152021 | 41 | 264 | 0.9 | 6.1 | 0.00 | 0.00 | 0.00 | 99 | 1015.3 |
| 20260507151022 | 41 | 70 | 1.7 | 4.3 | 0.00 | 0.00 | 0.00 | 99 | 1015.1 |
| 20260507150021 | 41 | 80 | 1.7 | 4.3 | 0.00 | 0.00 | 0.00 | 99 | 1015.4 |
| 20260507145021 | 40 | 34 | 2.6 | 5.2 | 0.00 | 0.00 | 0.00 | 99 | 1015.4 |
| 20260507144024 | 41 | 221 | 0.0 | 3.5 | 0.00 | 0.00 | 0.00 | 99 | 1015.6 |
| 20260507143021 | 40 | 54 | 0.9 | 2.6 | 0.00 | 0.00 | 0.00 | 99 | 1015.9 |
| 20260507142021 | 41 | 88 | 0.9 | 3.5 | 0.00 | 0.00 | 0.00 | 99 | 1016.0 |
| 20260507141022 | 41 | 77 | 1.7 | 3.5 | 0.00 | 0.00 | 0.00 | 99 | 1016.0 |
| 20260507140021 | 41 | 9 | 0.9 | 3.5 | 0.00 | 0.00 | 0.00 | 99 | 1016.1 |
| 20260507135024 | 41 | 87 | 0.9 | 3.5 | 0.00 | 0.00 | 0.00 | 99 | 1016.1 |
| 20260507134021 | 41 | 37 | 0.9 | 4.3 | 0.00 | 0.00 | 0.00 | 99 | 1016.1 |
| 20260507133022 | 42 | 84 | 1.7 | 3.5 | 0.00 | 0.00 | 0.00 | 99 | 1016.0 |
| 20260507132021 | 41 | 73 | 1.7 | 5.2 | 0.00 | 0.00 | 0.00 | 99 | 1016.0 |
| 20260507131022 | 41 | 131 | 0.9 | 5.2 | 0.00 | 0.00 | 0.00 | 99 | 1016.2 |
| 20260507130024 | 41 | 110 | 1.7 | 3.5 | 0.00 | 0.00 | 0.00 | 99 | 1016.4 |
| 20260507125024 | 41 | 72 | 1.7 | 3.5 | 0.00 | 0.00 | 0.00 | 99 | 1016.1 |
| 20260507124021 | 41 | 18 | 0.9 | 3.5 | 0.00 | 0.00 | 0.00 | 99 | 1016.2 |
| 20260507123021 | 41 | 145 | 1.7 | 4.3 | 0.00 | 0.00 | 0.00 | 99 | 1016.2 |
| 20260507122022 | 41 | 263 | 0.9 | 3.5 | 0.00 | 0.00 | 0.00 | 99 | 1016.0 |
| 20260507121021 | 41 | 309 | 0.9 | 4.3 | 0.00 | 0.00 | 0.00 | 99 | 1015.9 |
| 20260507120021 | 41 | 126 | 1.7 | 4.3 | 0.00 | 0.00 | 0.00 | 99 | 1015.8 |
| 20260507115022 | 41 | 95 | 2.6 | 7.8 | 0.00 | 0.00 | 0.00 | 99 | 1015.9 |
| 20260507114022 | 40 | 90 | 1.7 | 3.5 | 0.00 | 0.00 | 0.00 | 99 | 1015.9 |
| 20260507113023 | 40 | 270 | 1.7 | 3.5 | 0.00 | 0.00 | 0.00 | 99 | 1015.8 |
| 20260507112021 | 40 | 332 | 1.7 | 5.2 | 0.00 | 0.00 | 0.00 | 99 | 1016.0 |
| 20260507111022 | 41 | 274 | 2.6 | 6.1 | 0.00 | 0.00 | 0.00 | 99 | 1015.7 |
| 20260507110021 | 40 | 278 | 4.3 | 7.8 | 0.00 | 0.00 | 0.00 | 99 | 1015.6 |
| 20260507105021 | 40 | 337 | 3.5 | 6.1 | 0.00 | 0.00 | 0.00 | 99 | 1015.6 |
| 20260507104022 | 40 | 264 | 2.6 | 6.1 | 0.00 | 0.00 | 0.00 | 99 | 1015.6 |
| 20260507103021 | 41 | 286 | 2.6 | 7.0 | 0.00 | 0.00 | 0.00 | 99 | 1015.8 |
| 20260507102022 | 41 | 299 | 1.7 | 5.2 | 0.00 | 0.00 | 0.00 | 99 | 1015.7 |
| 20260507101021 | 41 | 266 | 2.6 | 3.5 | 0.00 | 0.00 | 0.00 | 99 | 1015.6 |
| 20260507100022 | 41 | 260 | 2.6 | 3.5 | 0.00 | 0.00 | 0.00 | 99 | 1015.5 |
| 20260507095024 | 41 | 323 | 2.6 | 4.3 | 0.00 | 0.00 | 0.00 | 99 | 1015.6 |
| 20260507094021 | 42 | 282 | 1.7 | 3.5 | 0.00 | 0.00 | 0.00 | 99 | 1015.4 |
| 20260507093022 | 42 | 247 | 0.9 | 5.2 | 0.00 | 0.00 | 0.00 | 99 | 1015.5 |
| 20260507092021 | 42 | 299 | 1.7 | 3.5 | 0.00 | 0.00 | 0.00 | 99 | 1015.3 |
| 20260507091022 | 43 | 266 | 1.7 | 4.3 | 0.00 | 0.00 | 0.00 | 99 | 1015.7 |
| 20260507090021 | 43 | 247 | 1.7 | 4.3 | 0.00 | 0.00 | 0.00 | 99 | 1015.3 |
| 20260507085021 | 43 | 259 | 1.7 | 3.5 | 0.00 | 0.00 | 0.00 | 99 | 1015.3 |
| 20260507084022 | 43 | 348 | 1.7 | 4.3 | 0.00 | 0.00 | 0.00 | 99 | 1014.9 |
| 20260507083021 | 44 | 224 | 0.9 | 3.5 | 0.00 | 0.00 | 0.00 | 99 | 1015.1 |
| 20260507082022 | 44 | 286 | 1.7 | 6.1 | 0.00 | 0.00 | 0.00 | 99 | 1015.2 |
| 20260507081021 | 44 | 270 | 1.7 | 4.3 | 0.00 | 0.00 | 0.00 | 99 | 1015.4 |
| 20260507080021 | 44 | 286 | 0.9 | 3.5 | 0.00 | 0.00 | 0.00 | 99 | 1015.3 |
| 20260507075022 | 44 | 319 | 1.7 | 6.1 | 0.00 | 0.00 | 0.00 | 99 | 1015.2 |
| 20260507074021 | 45 | 303 | 1.7 | 4.3 | 0.00 | 0.00 | 0.00 | 99 | 1015.3 |
| 20260507073026 | 45 | 266 | 1.7 | 3.5 | 0.00 | 0.00 | 0.00 | 99 | 1015.1 |
| 20260507072021 | 45 | 291 | 0.9 | 5.2 | 0.00 | 0.00 | 0.00 | 99 | 1014.8 |
| 20260507071022 | 46 | 262 | 1.7 | 6.1 | 0.00 | 0.00 | 0.00 | 99 | 1015.1 |
| 20260507070023 | 46 | 297 | 1.7 | 6.1 | 0.00 | 0.00 | 0.00 | 99 | 1015.0 |
| 20260507065022 | 46 | 302 | 2.6 | 6.1 | 0.00 | 0.00 | 0.00 | 99 | 1015.0 |
| 20260507064021 | 47 | 308 | 3.5 | 7.0 | 0.00 | 0.00 | 0.00 | 99 | 1015.2 |
| 20260507063024 | 47 | 288 | 3.5 | 5.2 | 0.00 | 0.00 | 0.00 | 99 | 1015.4 |
| 20260507062023 | 48 | 294 | 2.6 | 5.2 | 0.00 | 0.00 | 0.00 | 99 | 1015.5 |
| 20260507061021 | 48 | 293 | 1.7 | 6.1 | 0.00 | 0.00 | 0.00 | 99 | 1015.7 |
| 20260507060022 | 48 | 278 | 3.5 | 5.2 | 0.00 | 0.00 | 0.00 | 99 | 1015.9 |
| 20260507055021 | 49 | 288 | 4.3 | 8.7 | 0.00 | 0.00 | 0.00 | 99 | 1015.9 |
| 20260507054021 | 49 | 279 | 5.2 | 7.8 | 0.00 | 0.00 | 0.00 | 99 | 1016.0 |
| 20260507053022 | 52 | 304 | 5.2 | 8.7 | 0.00 | 0.00 | 0.00 | 99 | 1015.8 |
| 20260507052021 | 53 | 290 | 3.5 | 5.2 | 0.00 | 0.00 | 0.00 | 99 | 1015.9 |
| 20260507051022 | 53 | 264 | 1.7 | 4.3 | 0.00 | 0.00 | 0.00 | 99 | 1016.1 |
| 20260507050022 | 53 | 232 | 3.5 | 8.7 | 0.00 | 0.00 | 0.00 | 99 | 1015.8 |
| 20260507045021 | 53 | 241 | 4.3 | 8.7 | 0.00 | 0.00 | 0.00 | 99 | 1015.8 |
| 20260507044022 | 53 | 248 | 4.3 | 6.1 | 0.00 | 0.00 | 0.00 | 99 | 1015.5 |
| 20260507043023 | 52 | 259 | 3.5 | 6.1 | 0.00 | 0.00 | 0.00 | 99 | 1015.7 |
| 20260507042022 | 52 | 268 | 2.6 | 6.1 | 0.00 | 0.00 | 0.00 | 99 | 1015.8 |
| 20260507041021 | 53 | 256 | 3.5 | 7.0 | 0.00 | 0.00 | 0.00 | 99 | 1016.1 |
| 20260507040021 | 54 | 274 | 0.9 | 6.1 | 0.00 | 0.00 | 0.00 | 99 | 1016.9 |
| 20260507035022 | 54 | 260 | 2.6 | 7.8 | 0.00 | 0.00 | 0.38 | 99 | 1016.5 |
| 20260507034021 | 53 | 269 | 3.5 | 5.2 | 0.00 | 0.00 | 0.38 | 99 | 1016.7 |
| 20260507033022 | 53 | 251 | 3.5 | 6.1 | 0.00 | 0.00 | 0.38 | 99 | 1016.7 |
| 20260507032021 | 53 | 303 | 2.6 | 6.1 | 0.00 | 0.00 | 0.38 | 99 | 1016.7 |
| 20260507031024 | 55 | 271 | 2.6 | 7.0 | 0.00 | 0.00 | 0.38 | 99 | 1016.6 |
| 20260507030021 | 55 | 264 | 4.3 | 7.0 | 0.00 | 0.00 | 0.38 | 99 | 1016.6 |
| 20260507025022 | 56 | 253 | 1.7 | 3.5 | 0.12 | 0.00 | 0.38 | 99 | 1016.4 |
| 20260507024021 | 56 | 239 | 3.5 | 6.1 | 0.06 | 0.00 | 0.32 | 99 | 1016.6 |
| 20260507023021 | 56 | 202 | 1.7 | 3.5 | 0.00 | 0.00 | 0.26 | 99 | 1016.5 |
| 20260507022022 | 56 | 232 | 1.7 | 5.2 | 0.00 | 0.00 | 0.26 | 99 | 1016.3 |
| 20260507021021 | 56 | 242 | 1.7 | 6.1 | 0.00 | 0.00 | 0.26 | 99 | 1016.5 |
| 20260507020022 | 56 | 253 | 4.3 | 6.1 | 0.00 | 0.00 | 0.26 | 99 | 1016.3 |
| 20260507015022 | 56 | 264 | 3.5 | 7.8 | 0.00 | 0.00 | 0.26 | 99 | 1016.4 |
| 20260507014021 | 56 | 251 | 4.3 | 7.8 | 0.00 | 0.00 | 0.26 | 99 | 1016.2 |
| 20260507013022 | 56 | 230 | 2.6 | 7.0 | 0.00 | 0.00 | 0.26 | 99 | 1016.1 |
| 20260507012021 | 56 | 260 | 3.5 | 6.1 | 0.00 | 0.00 | 0.26 | 99 | 1016.4 |
| 20260507011021 | 56 | 288 | 3.5 | 6.1 | 0.00 | 0.00 | 0.26 | 99 | 1016.5 |
| 20260507010022 | 56 | 300 | 3.5 | 7.8 | 0.00 | 0.00 | 0.26 | 99 | 1016.6 |
| 20260507005021 | 56 | 278 | 3.5 | 6.1 | 0.11 | 0.00 | 0.26 | 99 | 1016.6 |
| 20260507004022 | 56 | 301 | 4.3 | 9.6 | 0.11 | 0.00 | 0.26 | 99 | 1016.5 |
| 20260507003021 | 56 | 294 | 6.1 | 7.8 | 0.09 | 0.00 | 0.25 | 99 | 1016.5 |
| 20260507002021 | 57 | 279 | 5.2 | 7.8 | 0.08 | 0.00 | 0.24 | 98 | 1016.3 |
| 20260507001022 | 57 | 257 | 6.1 | 8.7 | 0.05 | 0.00 | 0.20 | 97 | 1016.0 |
| 20260507000023 | 57 | 254 | 6.1 | 10.4 | 0.00 | 0.00 | 0.15 | 97 | 1015.7 |
| 20260506235022 | 57 | 249 | 5.2 | 10.4 | 0.00 | 0.00 | 0.13 | 96 | 1015.8 |
| 20260506234021 | 58 | 245 | 6.1 | 11.3 | 0.00 | 0.00 | 0.13 | 96 | 1016.0 |
| 20260506233022 | 58 | 268 | 6.1 | 9.6 | 0.00 | 0.00 | 0.13 | 95 | 1015.8 |
| 20260506232024 | 58 | 257 | 5.2 | 9.6 | 0.00 | 0.00 | 0.13 | 95 | 1015.8 |
| 20260506231023 | 58 | 260 | 5.2 | 11.3 | 0.00 | 0.00 | 0.13 | 94 | 1015.7 |
| 20260506230022 | 58 | 264 | 4.3 | 9.6 | 0.00 | 0.00 | 0.13 | 94 | 1015.4 |
| 20260506225021 | 58 | 265 | 6.1 | 8.7 | 0.00 | 0.00 | 0.13 | 94 | 1015.4 |
| 20260506224021 | 58 | 263 | 6.1 | 11.3 | 0.00 | 0.00 | 0.13 | 94 | 1015.8 |
| 20260506223022 | 58 | 289 | 7.0 | 14.8 | 0.00 | 0.00 | 0.13 | 94 | 1015.7 |
| 20260506222021 | 58 | 271 | 5.2 | 11.3 | 0.00 | 0.00 | 0.13 | 93 | 1015.4 |
| 20260506221022 | 59 | 256 | 6.1 | 8.7 | 0.00 | 0.00 | 0.13 | 92 | 1015.4 |
| 20260506220024 | 59 | 264 | 6.1 | 10.4 | 0.00 | 0.00 | 0.13 | 92 | 1015.5 |
| 20260506215021 | 59 | 260 | 5.2 | 10.4 | 0.00 | 0.00 | 0.13 | 92 | 1015.5 |
| 20260506214022 | 59 | 258 | 5.2 | 9.6 | 0.00 | 0.00 | 0.13 | 91 | 1015.2 |
| 20260506213021 | 59 | 226 | 6.1 | 9.6 | 0.00 | 0.00 | 0.13 | 90 | 1015.3 |
| 20260506212022 | 59 | 265 | 5.2 | 12.2 | 0.00 | 0.00 | 0.13 | 90 | 1015.2 |
| 20260506211021 | 59 | 268 | 4.3 | 11.3 | 0.00 | 0.00 | 0.13 | 92 | 1015.1 |
| 20260506210024 | 59 | 267 | 5.2 | 13.0 | 0.00 | 0.00 | 0.13 | 91 | 1015.0 |
| 20260506205021 | 58 | 238 | 6.1 | 11.3 | 0.00 | 0.00 | 0.13 | 91 | 1014.9 |
| 20260506204022 | 58 | 281 | 6.1 | 10.4 | 0.00 | 0.00 | 0.13 | 92 | 1014.7 |
| 20260506203021 | 58 | 263 | 6.1 | 10.4 | 0.00 | 0.00 | 0.13 | 93 | 1014.7 |
| 20260506202021 | 58 | 248 | 6.1 | 11.3 | 0.00 | 0.00 | 0.13 | 94 | 1014.5 |